Weather History for Montpelier, VT

Change the Weather History Date:

Friday, September 20, 2013

  Actual Average Record
Temperature  
Mean Temperature 60 °F 56 °F  
Max Temperature 76 °F 67 °F 85 °F (1983)
Min Temperature 44 °F 45 °F 29 °F (1950)
Degree Days  
Heating Degree Days 5 10  
Month to date heating degree days 170 129  
Since 1 July heating degree days 263 237  
Cooling Degree Days 0 0  
Month to date cooling degree days 29 16  
Year to date cooling degree days 323 260  
Growing Degree Days 10 (Base 50)    
Moisture  
Dew Point 49 °F    
Average Humidity 72    
Maximum Humidity 100    
Minimum Humidity 43    
Precipitation  
Precipitation 0.00 in 0.11 in 1.19 in (1989)
Month to date precipitation 3.64 1.94  
Year to date precipitation 28.93 26.74  
Sea Level Pressure  
Sea Level Pressure 30.09 in    
Wind  
Wind Speed 5 mph (South)    
Max Wind Speed 15 mph    
Max Gust Speed 20 mph    
Visibility 5 miles    
Events Fog    
T = Trace of Precipitation, MM = Missing Value Source: NWS Daily Summary

Daily Weather History Graph

Daily Weather History Graph

Search for Another Location

Airport:

Trip Planner

Search our weather history database for the weather conditions in past years. The results will help you decide how hot, cold, wet, or windy it might be!

Date:

Astronomy

Sep. 20, 2013 Rise Set
Actual Time 6:35 AM EDT 6:51 PM EDT
Civil Twilight 6:06 AM EDT 7:19 PM EDT
Nautical Twilight 5:32 AM EDT 7:53 PM EDT
Astronomical Twilight 4:57 AM EDT 8:28 PM EDT
Moon 7:17 PM EDT (9/20) 7:51 AM EDT (9/20)
Length of Visible Light 13h 13m
Length of Day
12h 15m
Full, 98% of the Moon is Illuminated
Sep 20
Full
Sep 26
Last Quarter
Oct 4
New
Oct 11
First Quarter
Oct 18
Full

Hourly Weather History & Observations

Time (EDT) Temp. Windchill Dew Point Humidity Pressure Visibility Wind Dir Wind Speed Gust Speed Precip Events Conditions
12:51 AM 48.9 °F - 48.0 °F 97% 30.13 in 10.0 mi Calm Calm - 0.01 in   Clear
1:21 AM 46.4 °F 45.2 °F 44.6 °F 93% 30.12 in 10.0 mi SE 3.5 mph - N/A   Scattered Clouds
1:25 AM 48.2 °F - 46.4 °F 93% 30.12 in 2.0 mi Calm Calm - N/A   Mostly Cloudy
1:27 AM 48.2 °F - 48.2 °F 100% 30.12 in 0.8 mi Calm Calm - N/A   Mist
1:51 AM 46.9 °F - 46.9 °F 100% 30.12 in 0.5 mi Calm Calm - N/A Fog Fog
2:00 AM 48.2 °F - 48.2 °F 100% 30.12 in 1.2 mi Calm Calm - N/A   Overcast
2:04 AM 48.2 °F - 48.2 °F 100% 30.12 in 0.8 mi Calm Calm - N/A   Mist
2:51 AM 46.0 °F - 45.0 °F 96% 30.11 in 0.5 mi Calm Calm - N/A Fog Fog
2:56 AM 46.4 °F - 46.4 °F 100% 30.11 in 1.2 mi Calm Calm - N/A   Mostly Cloudy
2:59 AM 46.4 °F - 46.4 °F 100% 30.10 in 2.5 mi Calm Calm - N/A   Mostly Cloudy
3:04 AM 46.4 °F - 46.4 °F 100% 30.11 in 6.0 mi Calm Calm - N/A   Scattered Clouds
3:14 AM 46.4 °F 45.2 °F 46.4 °F 100% 30.11 in 1.0 mi WSW 3.5 mph - N/A   Mist
3:21 AM 48.2 °F - 48.2 °F 100% 30.11 in 0.2 mi Calm Calm - N/A Fog Fog
3:51 AM 46.9 °F - 46.9 °F 100% 30.11 in 0.2 mi Calm Calm - N/A Fog Fog
4:51 AM 44.1 °F 42.5 °F 44.1 °F 100% 30.12 in 0.2 mi South 3.5 mph - N/A Fog Fog
5:01 AM 44.6 °F - 44.6 °F 100% 30.11 in 1.8 mi Calm Calm - N/A   Mostly Cloudy
5:03 AM 44.6 °F - 44.6 °F 100% 30.11 in 4.0 mi Calm Calm - N/A   Mostly Cloudy
5:10 AM 44.6 °F - 44.6 °F 100% 30.11 in 2.0 mi Calm Calm - N/A   Mostly Cloudy
5:12 AM 44.6 °F - 44.6 °F 100% 30.11 in 1.0 mi Calm Calm - N/A   Mist
5:19 AM 44.6 °F - 44.6 °F 100% 30.11 in 0.2 mi Calm Calm - N/A Fog Fog
5:51 AM 46.0 °F - 45.0 °F 96% 30.12 in 0.2 mi Calm Calm - N/A Fog Fog
6:16 AM 44.6 °F - 44.6 °F 100% 30.11 in 1.2 mi Calm Calm - N/A   Overcast
6:28 AM 44.6 °F - 44.6 °F 100% 30.12 in 0.8 mi Calm Calm - N/A   Mist
6:51 AM 45.0 °F - 44.1 °F 97% 30.14 in 0.2 mi Calm Calm - N/A Fog Fog
7:51 AM 46.9 °F - 46.0 °F 97% 30.15 in 0.2 mi Calm Calm - N/A Fog Fog
8:51 AM 48.9 °F - 48.9 °F 100% 30.17 in 0.2 mi Calm Calm - N/A Fog Fog
9:11 AM 51.8 °F - 51.8 °F 100% 30.14 in 1.5 mi Calm Calm - N/A   Mostly Cloudy
9:13 AM 51.8 °F - 51.8 °F 100% 30.14 in 4.0 mi Calm Calm - N/A   Mostly Cloudy
9:23 AM 53.6 °F - 51.8 °F 94% 30.14 in 10.0 mi Calm Calm - N/A   Scattered Clouds
9:51 AM 55.0 °F - 54.0 °F 96% 30.15 in 10.0 mi Calm Calm - N/A   Clear
10:51 AM 64.0 °F - 55.0 °F 73% 30.12 in 10.0 mi Calm Calm - N/A   Clear
11:51 AM 71.1 °F - 53.1 °F 53% 30.08 in 10.0 mi South 9.2 mph - 0.01 in   Clear
12:51 PM 73.0 °F - 52.0 °F 48% 30.06 in 10.0 mi SSW 11.5 mph - N/A   Clear
1:51 PM 75.0 °F - 51.1 °F 43% 30.06 in 10.0 mi South 10.4 mph - N/A   Clear
2:51 PM 75.0 °F - 53.1 °F 46% 30.04 in 10.0 mi South 11.5 mph - N/A   Clear
3:51 PM 75.0 °F - 53.1 °F 46% 30.02 in 10.0 mi SSW 10.4 mph - N/A   Clear
4:51 PM 73.9 °F - 52.0 °F 46% 30.01 in 10.0 mi South 8.1 mph - N/A   Clear
5:51 PM 72.0 °F - 53.1 °F 51% 30.01 in 10.0 mi South 4.6 mph - N/A   Clear
6:51 PM 66.9 °F - 50.0 °F 54% 30.01 in 10.0 mi South 9.2 mph - N/A   Clear
7:51 PM 66.0 °F - 50.0 °F 56% 30.01 in 10.0 mi South 12.7 mph - N/A   Clear
8:51 PM 63.0 °F - 51.1 °F 65% 30.02 in 10.0 mi South 8.1 mph - N/A   Clear
9:51 PM 61.0 °F - 52.0 °F 72% 30.02 in 10.0 mi South 5.8 mph - N/A   Clear
10:51 PM 60.1 °F - 52.0 °F 75% 30.01 in 10.0 mi South 8.1 mph - N/A   Clear
11:51 PM 57.9 °F - 51.1 °F 78% 29.99 in 10.0 mi SSW 5.8 mph - N/A   Clear